X  Close Clear throughout the day.
Conditions Temperature Feels Precipitation Wind Wind Direction UV index Pressure
19:00 cloudy Overcast 21° - 18-34 km/h WSW WSW uv-1 1010,1
20:00 cloudy Overcast 20° 0.01 mm 2% 17-32 km/h WSW WSW - 1010,6
21:00 cloudy Overcast 18° - 15-30 km/h WSW WSW - 1011,3
22:00 cloudy Overcast 16° - 12-28 km/h West West - 1011,8
23:00 cloudy Overcast 15° - 10-26 km/h WSW WSW - 1011,9
00:00 partly-cloudy-night Mostly Cloudy 14° - 9-22 km/h SE SE - 1012,0
01:00 partly-cloudy-night Partly Cloudy 13° - 9-19 km/h NNE NNE - 1012,1
02:00 clear-night Clear 13° - 9-16 km/h WNW WNW - 1012,1
03:00 clear-night Clear 12° - 9-14 km/h West West - 1012,4
04:00 clear-night Clear 12° - 9-13 km/h West West - 1012,4
05:00 clear-night Clear 12° - 9-12 km/h WNW WNW - 1012,6
06:00 clear-day Clear 12° - 8-12 km/h NW NW - 1013,1
07:00 clear-day Clear 14° - 8-12 km/h WSW WSW - 1013,9
08:00 clear-day Clear 15° - 8-12 km/h West West uv-1 1014,8
09:00 clear-day Clear 17° - 7-11 km/h NNW NNW uv-3 1015,4
10:00 clear-day Clear 18° - 7-10 km/h SSE SSE uv-6 1015,5
11:00 clear-day Clear 20° - 7-9 km/h SSW SSW uv-9 1015,6
12:00 clear-day Clear 22° - 9-10 km/h South South uv-11 1015,8
13:00 clear-day Clear 23° - 11-12 km/h SSE SSE uv-12 1015,7
14:00 clear-day Clear 24° - 13-14 km/h SE SE uv-12 1015,7
15:00 clear-day Clear 24° - 14-16 km/h SE SE uv-10 1015,5
16:00 clear-day Clear 24° - 15-18 km/h SE SE uv-8 1015,3
17:00 clear-day Clear 23° - 16-19 km/h SE SE uv-5 1015,3
18:00 clear-day Clear 22° - 15-19 km/h SE SE uv-2 1015,7
19:00 partly-cloudy-day Partly Cloudy 21° - 14-19 km/h SE SE uv-1 1016,2
20:00 partly-cloudy-day Partly Cloudy 19° - 12-18 km/h SE SE - 1016,9
21:00 partly-cloudy-night Partly Cloudy 18° - 9-13 km/h SE SE - 1017,2
22:00 partly-cloudy-night Partly Cloudy 16° - 6-8 km/h SE SE - 1017,7
23:00 clear-night Clear 15° - 4-5 km/h SE SE - 1018,1
00:00 clear-night Clear 14° - 3-3 km/h SE SE - 1018,3
01:00 clear-night Clear 13° 0.01 mm 1% 2-3 km/h ENE ENE - 1017,8
02:00 clear-night Clear 13° 0.01 mm 1% 2-3 km/h NNE NNE - 1017,8
03:00 clear-night Clear 12° 0.01 mm 1% 2-3 km/h NE NE - 1017,5
04:00 clear-night Clear 11° - 3-3 km/h NNE NNE - 1017,6
05:00 clear-night Clear 11° - 3-3 km/h NNE NNE - 1017,4
06:00 clear-day Clear 12° - 4-4 km/h NNE NNE - 1017,9
07:00 clear-day Clear 14° - 4-6 km/h NNE NNE - 1018,5
08:00 partly-cloudy-day Partly Cloudy 15° - 4-8 km/h North North uv-1 1019,0
09:00 clear-day Clear 18° - 6-10 km/h NNE NNE uv-3 1019,2
10:00 clear-day Clear 21° - 7-11 km/h ENE ENE uv-5 1019,3
11:00 clear-day Clear 24° - 9-12 km/h ESE ESE uv-8 1019,1
12:00 clear-day Clear 26° - 11-13 km/h ESE ESE uv-10 1018,9
13:00 clear-day Clear 27° - 13-13 km/h ESE ESE uv-12 1018,6
14:00 clear-day Clear 28° - 14-15 km/h SE SE uv-12 1018,2
15:00 clear-day Clear 28° - 15-16 km/h SE SE uv-10 1017,7
16:00 clear-day Clear 28° 0.01 mm 2% 16-16 km/h SE SE uv-8 1017,0
17:00 clear-day Clear 27° 0.01 mm 2% 16-17 km/h SE SE uv-5 1016,8
18:00 clear-day Clear 26° - 15-17 km/h SE SE uv-2 1017,0
19:00 clear-day Clear 24° - 13-18 km/h SE SE uv-1 1017,6